Regional Weather Roundup
Issued by NWS Burlington, VT

Home | Current Version | Previous Version | Text Only | Print | Product List | Glossary On
Versions: 1 2 3 4 5 6 7 8 9 10 11 12 13 14 15 16 17 18 19 20 21 22 23 24 25 26 27 28 29 30 31 32 33 34 35 36 37 38 39 40 41 42 43 44 45 46 47 48 49 50
000
ASUS41 KBTV 160430
RWRBTV
VERMONT REGIONAL WEATHER ROUNDUP
NATIONAL WEATHER SERVICE BURLINGTON VT
1200 AM EDT WED APR 16 2014

NOTE: "FAIR" INDICATES FEW OR NO CLOUDS BELOW 12,000 FEET WITH NO
SIGNIFICANT WEATHER AND/OR OBSTRUCTIONS TO VISIBILITY.

* THESE REPORTS ARE NOT UNDER NWS QUALITY CONTROL AND/OR DO NOT
  REPORT WEATHER SUCH AS PRECIPITATION AND FOG.

VTZ001>019-160500-
_____VERMONT_____


CITY           SKY/WX    TMP DP  RH WIND       PRES   REMARKS
BURLINGTON     SNOW      27  25  92 N13       29.93R VSB 1/2 WCI  16
MONTPELIER     LGT SNOW  26  24  92 NW12G25   29.86S VSB 3/4 WCI  16
MORRISVILLE    LGT SNOW  25  23  92 N6        29.88S VSB 3/4
ST. JOHNSBURY*   N/A     30  26  85 MISG      29.82R
LYNDONVILLE*   LGT SNOW  28  25  87 W7        29.83R
MIDDLEBURY*    SNOW      30  30 100 NW12      29.86F VSB 1/2
RUTLAND*       CLOUDY    30  28  93 NW10G20   29.83F
SPRINGFIELD    LGT SNOW  33  30  88 N3        29.80R VSB 1
HIGHGATE*      LGT SNOW  28  26  89 W6        29.95R
NEWPORT*       LGT SNOW  27  22  82 W6        29.86R
BENNINGTON     LGT SNOW  29  25  85 W10G25    29.89R VSB 3/4 WCI  20
GALLUP MILLS*    N/A     21 N/A N/A MISG        N/A
UNION VILLAGE*   N/A     34 N/A N/A MISG        N/A
MT. MANSFIELD*   N/A     14 N/A N/A NW29        N/A  WCI  -7

_____LAKE CHAMPLAIN_____


CITY           SKY/WX    TMP DP  RH WIND       PRES   REMARKS
BURTON ISLAND*   N/A     28  25  86 W20         N/A  WCI  15
COLCHESTER RF*   N/A     30  27  86 N28         N/A  WCI  16
DIAMOND ISL*     N/A     30  28  93 N21         N/A  WCI  17

$$

NYZ007-026>031-035-052-083-160500-
_____NORTHERN NEW YORK_____


CITY           SKY/WX    TMP DP  RH WIND       PRES   REMARKS
PLATTSBURGH    CLOUDY    27  22  81 NW7       29.94R
SARANAC LAKE   LGT SNOW  18  13  80 W10G18    29.88F WCI   6
MASSENA        CLOUDY    24  15  68 W10G20    30.04R WCI  14
OGDENSBURG*    MOCLDY    25  19  80 NW13G20   30.06R WCI  13
POTSDAM*       CLOUDY    25  18  74 NW12      30.04R WCI  14
PARISHVILLE*     N/A     19 N/A N/A NW8         N/A
WATERTOWN      CLOUDY    28  20  71 N10       30.07R WCI  19
FT DRUM        FLURRIES  25  18  74 W10G24    30.03R WCI  15
ALBANY         LGT SNOW  29  25  85 NW12      29.95R FOG     WCI  19
GLENS FALLS    LGT SNOW  30  28  92 SW6       29.92R FOG

$$
NHZ002-005-011-160500-
_____NEW HAMPSHIRE_____


CITY           SKY/WX    TMP DP  RH WIND       PRES   REMARKS
LEBANON        FLURRIES  36  33  89 W3        29.79S
KEENE          CLOUDY    34  28  80 NW6       29.79F
MT WASHINGTON  SNOW      18  18 100 NW41G48     N/A  VSB 1/8 WCI  -5
PLYMOUTH       LGT SNOW  35  33  90 NW9       29.76R
WHITEFIELD     LGT SNOW  31  28  89 W9        29.81R VSB 1

$$

_____REGIONAL QUEBEC LOCATIONS_____


CITY           SKY/WX    TMP DP  RH WIND       PRES   REMARKS
MONTREAL       FLURRIES  25  16  68 W17G24    29.96R WCI  11
QUEBEC CITY    FLURRIES  25  21  86 W21G28    29.73R WCI  10
SHERBROOKE     LGT SNOW  25  25 100 W23G33    29.83R VSB 3/4 WCI  10

_____REGIONAL ONTARIO LOCATIONS_____


CITY           SKY/WX    TMP DP  RH WIND       PRES   REMARKS
OTTAWA         PTCLDY    21  14  73 W20       30.04R WCI   6

______KEY______
VSB  - VISIBILITY IN MILES
WCI  - WIND CHILL INDEX
HX   - HEAT INDEX
$$



USA.gov is the U.S. government's official web portal to all federal, state and local government web resources and services.